Location: ???????????
(55.5758°N, 38.4970°E)
Time: 21:13:31
(UTC+00:00)

USA 238 - Pass Details

Date: 15 November 2025
Orbit: 887 x 1324 km, 63.4° (Epoch: 24 November)

Event Time Altitude Azimuth Distance (km) Brightness Sun altitude
Exits shadow 03:51:00 10° 305° (NW) 2,899 5.4 -9.7°
Maximum altitude 03:57:52 62° 26° (NNE) 1,303 4.2 -8.8°
Drops below altitude 10° 04:05:34 10° 107° (ESE) 3,224 8.0 -7.8°
Sets 04:08:32 0° 111° (ESE) 4,236 9.5 -7.4°
